Location: Mexico
(19.4000°N, 99.1500°W)
Time: 09:39:01
(UTC-06:00)

ISS - Pass Details

Date: 21 February 2018
Orbit: 403 x 406 km, 51.6° (Epoch: 26 February)

Event Time Altitude Azimuth Distance (km) Brightness Sun altitude
Rises 06:32:35 0° 195° (SSW) 2,306 -0.1 -7.6°
Reaches altitude 10° 06:34:55 10° 180° (S) 1,449 -0.9 -7.0°
Maximum altitude 06:37:33 23° 125° (SE) 912 -1.1 -6.4°
Drops below altitude 10° 06:40:11 10° 71° (ENE) 1,450 0.1 -5.8°
Sets 06:42:32 0° 56° (NE) 2,310 0.8 -5.2°
